This is the latest recevied weather packets stored in our database for station/object 7L2IWN-13. If no packets are shown the sender has not sent any weather packets the latest 10 day(s).
| Time | Temp. | Humidity | Pressure | Rain* | Wind** | Luminosity | Snow |
|---|---|---|---|---|---|---|---|
| 1777509981 | 13.33° C | 80% | 1020.1 hPa | 0 mm | - | - | - |
| 1777509262 | 12.78° C | 81% | 1020.2 hPa | 0 mm | - | - | - |
| 1777507823 | 12.78° C | 84% | 1019.9 hPa | 0 mm | - | - | - |
| 1777504942 | 12.78° C | 88% | 1019.5 hPa | 0 mm | - | - | - |
| 1777503500 | 12.78° C | 91% | 1019.3 hPa | 0 mm | - | - | - |
| 1777501341 | 11.67° C | 94% | 1019.3 hPa | 0 mm | - | - | - |
| 1777499901 | 11.67° C | 97% | 1019.2 hPa | 0 mm | - | - | - |
| 1777497741 | 11.11° C | 99% | 1019 hPa | 0 mm | - | - | - |
| 1777496304 | 11.11° C | 99% | 1018.8 hPa | 0 mm | - | - | - |
| 1777494861 | 11.11° C | 99% | 1018.4 hPa | 0 mm | - | - | - |
| 1777494141 | 11.11° C | 99% | 1018.2 hPa | 0 mm | - | - | - |
| 1777491259 | 11.11° C | 99% | 1018.2 hPa | 0 mm | - | - | - |
| 1777490541 | 11.11° C | 99% | 1018.1 hPa | 0 mm | - | - | - |
| 1777489101 | 11.11° C | 99% | 1017.9 hPa | 0 mm | - | - | - |
| 1777487660 | 11.11° C | 99% | 1018 hPa | 0 mm | - | - | - |
| 1777486942 | 11.11° C | 99% | 1018.2 hPa | 0.51 mm | - | - | - |
| 1777484060 | 12.22° C | 99% | 1017.7 hPa | 0.51 mm | - | - | - |
| 1777483339 | 12.78° C | 98% | 1017.3 hPa | 0 mm | - | - | - |
| 1777481901 | 12.78° C | 98% | 1017.2 hPa | 0 mm | - | - | - |
| 1777481182 | 12.78° C | 98% | 1017.2 hPa | 0 mm | - | - | - |
| 1777480461 | 12.78° C | 98% | 1016.9 hPa | 0 mm | - | - | - |
| 1777478300 | 12.78° C | 97% | 1017.2 hPa | 0 mm | - | - | - |
| 1777473981 | 13.33° C | 96% | 1017 hPa | 0 mm | - | - | - |
| 1777469662 | 13.33° C | 93% | 1016.3 hPa | 0 mm | - | - | - |
| 1777468942 | 13.33° C | 93% | 1016.3 hPa | 0 mm | - | - | - |
* Rain latest hour (hover to see other rain measurements)
** Current wind speed in m/s (hover to see current wind gust speed)